Regional Weather Roundup
Issued by NWS Northern Indiana

Home | Current Version | Previous Version | Graphics & Text | Print | Product List | Glossary On
Versions: 1 2 3 4 5 6 7 8 9 10 11 12 13 14 15 16 17 18 19 20 21 22 23 24 25 26 27 28 29 30 31 32 33 34 35 36 37 38 39 40 41 42 43 44 45 46 47 48 49 50
000
ASUS43 KIWX 251800
RWRIWX

KIWX WEATHER ROUNDUP
NATIONAL WEATHER SERVICE NORTHERN INDIANA
200 PM EDT THU AUG 25 2016

NOTE: "FAIR" INDICATES FEW OR NO CLOUDS BELOW 12,000 FEET WITH NO
SIGNIFICANT WEATHER AND/OR OBSTRUCTIONS TO VISIBILITY.

* THESE STATIONS ARE NOT UNDER NWS QUALITY CONTROL. THEY ALSO MAY NOT
  REPORT WEATHER SUCH AS PRECIPITATION OR FOG.

INZ001>027-251900-
NORTHERN INDIANA

CITY           SKY/WX    TMP DP  RH WIND       PRES   REMARKS
GARY*          CLOUDY    77  72  83 N7        30.05S
KNOX*          CLOUDY    77  50  38 W8G16     30.05S
SOUTH BEND     LGT RAIN  74  71  91 W7        30.05R
6HR MIN TEMP:  69; 6HR MAX TEMP:  78; 6HR PCP: TRACE;

ELKHART*       PTSUNNY   77  70  78 W14       30.05R
GOSHEN         CLOUDY    80  68  66 W16G22    30.04R
6HR MIN TEMP:  70; 6HR MAX TEMP:  82; 6HR PCP: TRACE;

MONTICELLO*    PTSUNNY   80  67  65 W9        30.05S
6HR MIN TEMP:  70; 6HR MAX TEMP:  82;

ANGOLA*        PTSUNNY   84  72  65 SW9       30.03R
FORT WAYNE     MOSUNNY   84  68  58 SW17G24   30.04S
6HR MIN TEMP:  70; 6HR MAX TEMP:  85; 6HR PCP: TRACE;

PERU/GRISSOM   MOSUNNY   84  70  62 W14       30.05S
6HR MIN TEMP:  69; 6HR MAX TEMP:  84;


$$
INZ028>050-251900-
CENTRAL INDIANA

CITY           SKY/WX    TMP DP  RH WIND       PRES   REMARKS
LAFAYETTE      PTSUNNY   82  70  66 W13G18    30.06S
6HR MIN TEMP:  69; 6HR MAX TEMP:  83;

MUNCIE*        SUNNY     86  71  60 W9G20     30.06F
6HR MIN TEMP:  74; 6HR MAX TEMP:  87;

INDIANAPOLIS   MOSUNNY   89  71  55 W15G21    30.07F HX  95
6HR MIN TEMP:  75; 6HR MAX TEMP:  89;


$$
MIZ043>046-050>051-056>058-064>065-071>073-077>080-251900-
SOUTHWEST LOWER MICHIGAN

CITY           SKY/WX    TMP DP  RH WIND       PRES   REMARKS
BATTLE CREEK   PTSUNNY   78  71  79 W12       30.01S
6HR MIN TEMP:  70; 6HR MAX TEMP:  80;

BENTON HARBOR  MOSUNNY   78  69  73 W10       30.04R
6HR MIN TEMP:  72; 6HR MAX TEMP:  78; 6HR PCP: TRACE;

COLDWATER*     CLOUDY    82  69  65 W10G17    30.02R
6HR MIN TEMP:  72; 6HR MAX TEMP:  82;

HILLSDALE*     MOSUNNY   82  68  63 SW10G17   30.01S
6HR MIN TEMP:  51; 6HR MAX TEMP:  84;

HOLLAND        MOSUNNY   77  70  79 W12       30.03R
6HR MIN TEMP:  73; 6HR MAX TEMP:  80;

GRAND RAPIDS   PTSUNNY   78  70  76 NW14      30.00R
6HR MIN TEMP:  73; 6HR MAX TEMP:  81; 6HR PCP: TRACE;

KALAMAZOO      PTSUNNY   80  69  69 W14G22    30.02R
6HR MIN TEMP:  73; 6HR MAX TEMP:  81; 6HR PCP: TRACE;

STURGIS*       CLOUDY    80  68  67 W9        30.02R
6HR MIN TEMP:  71; 6HR MAX TEMP:  83;

THREE RIVERS*  CLOUDY    80  70  72 W13       30.03R
6HR MIN TEMP:  72; 6HR MAX TEMP:  81;


$$
OHZ001>008-015>018-024>025-251900-
NORTHWEST OHIO

CITY           SKY/WX    TMP DP  RH WIND       PRES   REMARKS
DEFIANCE       MOSUNNY   85  70  60 SW10G17   30.01F
6HR MIN TEMP:  71; 6HR MAX TEMP:  85; 6HR PCP:  0.01;

FINDLAY        MOSUNNY   88  70  55 SW10      30.01F
6HR MIN TEMP:  73; 6HR MAX TEMP:  89; 6HR PCP:  0.01;

TOLEDO EXPRESS MOSUNNY   84  73  69 SW14      29.99F
6HR MIN TEMP:  71; 6HR MAX TEMP:  85;

TOLEDO METCALF MOSUNNY   86  74  67 SW16G23   30.00S
6HR MIN TEMP:  72; 6HR MAX TEMP:  86;

LIMA           MOSUNNY   87  74  64 SW18      30.04F HX  95
6HR MIN TEMP:  73; 6HR MAX TEMP:  87; 6HR PCP:  0.01;


$$
AND FOR LAKE MICHIGAN COASTAL AND OPEN LAKE BUOY OBSERVATIONS

STATION/POSITION TEMP    WIND        PRES    VSBY  WAVE
                 AIR SEA DIR/SP/G                  HT/PER
                 (F)     (DEG/KT/KT) (MB)    (MI)  (FT/S)
CALUMET HARBOR    72     330/  5/  9 1017.0R
MICHIGAN CITY     73     250/ 14/ 16   N/A
BURNS HARBOR      73     340/  8/ 14 1017.6R
SAINT JOSEPH      76     270/  6/  9 1017.6R
SOUTH LAKE BUOY   71 74  330/ 10/ 12 1016.0          1/ 3
4 MI NW BRIDGMAN  74 74  280/ 12/ 14 1016.5R         3/ 4
MICHIGAN CITY     73 73  280/ 10/ 12   N/A           1/ 3

$$
&&




USA.gov is the U.S. government's official web portal to all federal, state and local government web resources and services.